Content
SEND FEEDBACK

Daily
Averages
Monthly
Summary
United States of America

INARAJAN, GUAM


Home > North America > United States > Guam
Elevation: 85 meters     Latitude: 13 18N     Longitude: 144 44E

WEATHER
 
SELECT A DAY
Number of Records: 341,794;   Date Range: 1/1/95 - 7/23/14
 
SHARE

PRINT THIS DATA

[ ← Previous Day ]
WEATHER ALMANAC - 22 OCTOBER, 2013
[ Next Day → ]
[ °F ]   °C
Weather ElementAverageHighLow
Temperature24.4 °C27 °C (10:55 am)21 °C (1:28 pm)
Dewpoint23.7 °C26 °C (12:29 am)20 °C (1:28 pm)
Humidity95.7 %100 % (12:29 am)83 % (10:50 am)
Barometer1007.8 hPa1009.5 hPa (12:19 am)1006.1 hPa (2:58 am)
Wind Speed11.9 km/h24.1 km/h (12:28 pm)
Weather ElementAverage
Visibility14.6 km
Wind DirectionWSW (234 °)

Weather ElementTotal
Precipitation3.81 mm
Cooling Degree Days5.7 (Base 18.3)
Growing Degree Days14 (Base 10)
Averaged from 77 records on 22 October, 2013
WEATHER CONDITIONS BREAKOUT
WIND DIRECTION BREAKOUT
WEATHER BY HOUR - 22 OCTOBER, 2013
[ °F ]   °C
Local TimeTemperatureDewpointHumidityBarometerVisibilityWind DirectionWind SpeedGust SpeedPrecipitationEventsConditions
12:19 AM26 °C25 °C94 %1009.5 hPa16.1 kmSSW (200°)14.8 km/hMostly Cloudy
12:24 AM26 °C25 °C94 %1009.5 hPa16.1 kmSSW (200°)14.8 km/hMostly Cloudy
12:29 AM26 °C26 °C100 %1009.1 hPa16.1 kmSouth (190°)16.7 km/hMostly Cloudy
12:39 AM26 °C25 °C94 %1008.8 hPa16.1 kmSouth (190°)14.8 km/hMostly Cloudy
12:44 AM26 °C25 °C94 %1008.8 hPa16.1 kmSouth (180°)16.7 km/hMostly Cloudy
12:49 AM26 °C26 °C100 %1008.8 hPa16.1 kmSouth (180°)18.5 km/hMostly Cloudy
12:58 AM26.1 °C25.4 °C96 %1007.5 hPa16.1 kmSouth (180°)14.8 km/h0.25 mmMostly Cloudy
1:18 AM26 °C25 °C94 %1008.5 hPa16.1 kmSouth (190°)16.7 km/hMostly Cloudy
1:38 AM26 °C25 °C94 %1008.5 hPa16.1 kmSouth (170°)14.8 km/hMostly Cloudy
1:48 AM26 °C25 °C94 %1008.1 hPa16.1 kmSouth (190°)13 km/hOvercast
1:58 AM25.8 °C25 °C95 %1007.1 hPa16.1 kmSouth (190°)13 km/hOvercast
2:08 AM26 °C25 °C94 %1008.1 hPa11.3 kmSW (230°)18.5 km/hMostly Cloudy
2:10 AM25 °C24 °C94 %1008.1 hPa4.8 kmSSW (200°)13 km/hRainLight Rain
2:15 AM25 °C24 °C94 %1008.1 hPa4 kmSW (230°)14.8 km/hRainLight Rain
2:20 AM25 °C24 °C94 %1007.8 hPa6.4 kmSW (230°)16.7 km/hRainLight Rain
2:25 AM25 °C24 °C94 %1007.8 hPa12.9 kmSW (220°)14.8 km/hRainLight Rain
2:52 AM25 °C25 °C100 %1007.1 hPa16.1 kmSouth (190°)13 km/hPartly Cloudy
2:58 AM25.1 °C24.6 °C97 %1006.1 hPa16.1 kmSSW (200°)13 km/h0.76 mmClear
3:05 AM25 °C24 °C94 %1007.1 hPa16.1 kmSSW (200°)11.1 km/hRainLight Rain
3:17 AM25 °C25 °C100 %1007.1 hPa16.1 kmSouth (190°)13 km/hClear
3:58 AM24.5 °C24 °C97 %1006.1 hPa16.1 kmSouth (190°)11.1 km/h0 mmPartly Cloudy
4:13 AM24 °C24 °C100 %1007.1 hPa16.1 kmSW (230°)7.4 km/hMostly Cloudy
4:17 AM24 °C24 °C100 %1007.1 hPa6.4 kmSW (220°)13 km/hLight Drizzle
4:22 AM24 °C24 °C100 %1007.1 hPa4 kmSouth (190°)9.3 km/hLight Drizzle
4:27 AM24 °C23 °C94 %1007.1 hPa6.4 kmSouth (180°)9.3 km/hLight Drizzle
4:29 AM24 °C24 °C100 %1007.1 hPa8 kmSouth (170°)9.3 km/hMostly Cloudy
4:34 AM23 °C23 °C100 %1007.5 hPa14.5 kmSouth (190°)7.4 km/hMostly Cloudy
4:39 AM23 °C23 °C100 %1007.5 hPa16.1 kmSSW (200°)9.3 km/hMostly Cloudy
4:44 AM24 °C23 °C94 %1007.5 hPa16.1 kmSSW (200°)9.3 km/hMostly Cloudy
4:49 AM25 °C24 °C94 %1007.5 hPa16.1 kmSouth (190°)9.3 km/hScattered Clouds
4:58 AM24.7 °C24.3 °C98 %1006.8 hPa16.1 kmSSW (200°)5.6 km/h0 mmScattered Clouds
5:08 AM22 °C22 °C100 %1007.8 hPa16.1 kmWSW (240°)7.4 km/hMostly Cloudy
5:13 AM22 °C21 °C94 %1007.8 hPa16.1 kmWSW (240°)7.4 km/hScattered Clouds
5:58 AM22.7 °C22.6 °C99 %1007.1 hPa16.1 kmSSW (210°)7.4 km/hClear
6:58 AM24.8 °C24.1 °C96 %1007.5 hPa16.1 kmWSW (240°)13 km/hPartly Cloudy
7:58 AM25.1 °C24.6 °C97 %1008.1 hPa16.1 kmSSW (210°)9.3 km/hClear
8:58 AM26.2 °C25.3 °C95 %1008.5 hPa16.1 kmSouth (190°)5.6 km/hClear
9:46 AM25 °C24 °C94 %1009.1 hPa16.1 kmSW (220°)7.4 km/hRainLight Rain
9:58 AM25 °C23.7 °C92 %1008.5 hPa16.1 kmNorth (350°)1.9 km/h0 mmRainLight Rain
10:00 AM25 °C24 °C94 %1009.5 hPa16.1 kmVariable3.7 km/hClear
10:50 AM25 °C22 °C83 %1009.1 hPa16.1 kmWest (260°)11.1 km/hMostly Cloudy
10:55 AM27 °C24 °C84 %1008.8 hPa16.1 kmWest (260°)11.1 km/hScattered Clouds
10:58 AM26.6 °C24.1 °C86 %1007.8 hPa16.1 kmWest (260°)11.1 km/h0 mmScattered Clouds
11:07 AM25 °C24 °C94 %1009.1 hPa16.1 kmSW (220°)22.2 km/hRainLight Rain
11:12 AM25 °C24 °C94 %1009.1 hPa16.1 kmWSW (240°)22.2 km/hRainLight Rain
11:17 AM25 °C23 °C89 %1009.1 hPa16.1 kmWSW (240°)20.4 km/hRainRain
11:34 AM24 °C23 °C94 %1008.5 hPa16.1 kmWSW (240°)16.7 km/hPartly Cloudy
11:39 AM24 °C23 °C94 %1008.5 hPa16.1 kmWSW (250°)11.1 km/hRainLight Rain
11:51 AM22 °C21 °C94 %1008.5 hPa16.1 kmWNW (290°)13 km/hPartly Cloudy
11:54 AM22 °C21 °C94 %1008.5 hPa16.1 kmWNW (290°)11.1 km/hLight Drizzle
11:58 AM21.7 °C20.8 °C95 %1007.5 hPa16.1 kmNW (320°)11.1 km/h1.27 mmLight Drizzle
12:04 PM23 °C23 °C100 %1008.5 hPa16.1 kmNorth (350°)13 km/hScattered Clouds
12:23 PM22 °C22 °C100 %1008.5 hPa16.1 kmNW (310°)13 km/hRainLight Rain
12:28 PM23 °C23 °C100 %1008.5 hPa11.3 kmWest (260°)24.1 km/hRainLight Rain
12:33 PM23 °C22 °C94 %1008.1 hPa4.8 kmWest (260°)18.5 km/hRainLight Rain
12:38 PM23 °C22 °C94 %1008.1 hPa4.8 kmWNW (290°)18.5 km/hRainLight Rain
12:58 PM22.4 °C21.7 °C96 %1007.1 hPa12.9 kmWest (260°)14.8 km/h0.76 mmRainLight Rain
1:28 PM21 °C20 °C94 %1007.8 hPa16.1 kmWNW (300°)9.3 km/hRainLight Rain
1:33 PM21 °C21 °C100 %1007.8 hPa16.1 kmWest (260°)3.7 km/hRainLight Rain
1:58 PM21.6 °C20.8 °C95 %1006.8 hPa16.1 kmSSE (160°)9.3 km/h0.51 mmLight Drizzle
2:10 PM24 °C23 °C94 %1007.8 hPa16.1 kmSouth (180°)5.6 km/hClear
2:58 PM23.3 °C22.4 °C95 %1006.1 hPa16.1 kmWest (270°)13 km/h0 mmPartly Cloudy
3:14 PM24 °C23 °C94 %1007.1 hPa16.1 kmWSW (250°)9.3 km/hLight Drizzle
3:24 PM25 °C24 °C94 %1007.1 hPa16.1 kmWest (260°)9.3 km/hClear
3:28 PM25 °C24 °C94 %1007.1 hPa16.1 kmWSW (250°)9.3 km/hLight Drizzle
3:58 PM24.7 °C24 °C96 %1006.1 hPa16.1 kmSW (230°)7.4 km/h0 mmRainLight Rain
4:22 PM25 °C24 °C94 %1007.5 hPa16.1 kmWest (260°)13 km/hClear
4:58 PM25.2 °C24.9 °C98 %1006.4 hPa16.1 kmWNW (290°)11.1 km/h0 mmScattered Clouds
5:49 PM25 °C25 °C100 %1007.5 hPa16.1 kmWNW (290°)13 km/hLight Drizzle
5:58 PM25 °C24.8 °C99 %1006.4 hPa16.1 kmWest (280°)14.8 km/h0 mmRainLight Rain
6:19 PM25 °C25 °C100 %1007.8 hPa16.1 kmWNW (290°)13 km/hScattered Clouds
6:58 PM24.8 °C24.3 °C97 %1007.5 hPa16.1 kmNW (310°)9.3 km/h0 mmMostly Cloudy
7:58 PM24.9 °C24.6 °C98 %1007.8 hPa16.1 kmNW (320°)11.1 km/hScattered Clouds
8:58 PM24.8 °C24.7 °C99 %1008.1 hPa16.1 kmNNW (330°)11.1 km/hPartly Cloudy
9:58 PM24.8 °C24.7 °C99 %1008.5 hPa16.1 kmWNW (290°)3.7 km/hMostly Cloudy
10:58 PM24.7 °C24.6 °C99 %1008.5 hPa16.1 kmWest (280°)5.6 km/h0.25 mmPartly Cloudy
11:58 PM24.5 °C24.5 °C100 %1008.1 hPa16.1 kmNW (310°)9.3 km/hClear
Hourly data recorded from PGUA, located 0 kilometers away from Inarajan, Guam







STORIES FROM OUR PARTNERS